Weather Roundup
Issued by NWS Chicago, IL

Home | Current Version | Previous Version | Graphics & Text | Print | Product List | Glossary On
Versions: 1 2 3 4 5 6 7 8 9 10 11 12 13 14 15 16 17 18 19 20 21 22 23 24 25 26 27 28 29 30 31 32 33 34 35 36 37 38 39 40 41 42 43 44 45 46 47 48 49 50
000
NZUS59 KLOT 021102
HRRLOT

CHICAGO AREA WEATHER ROUNDUP
NATIONAL WEATHER SERVICE CHICAGO/ROMEOVILLE IL
600 AM CDT SUN AUG 02 2015

NOTE: "FAIR" INDICATES FEW OR NO CLOUDS BELOW 12,000 FEET WITH NO
SIGNIFICANT WEATHER AND/OR OBSTRUCTIONS TO VISIBILITY.

* THESE STATIONS ARE NOT UNDER NWS QUALITY CONTROL. THEY ALSO MAY NOT
  REPORT WEATHER SUCH AS PRECIPITATION OR FOG.

ILZ005-006-012>014-019>023-021200-
NORTHEAST ILLINOIS

CITY           SKY/WX    TMP DP  RH WIND       PRES   REMARKS
OHARE          PTCLDY    72  67  84 SW8       29.85F
MIDWAY         PTCLDY    73  66  78 SW7       29.86F
AURORA         PTCLDY    69  65  86 SW5       29.88R
JOLIET*        CLEAR     69  67  93 S3        29.88S
WAUKEGAN       CLOUDY    73  69  87 VRB6      29.83S
DUPAGE AIRPORT CLEAR     68  65  90 S8        29.86F
WHEELING       MOCLDY    72  67  84 S7        29.86F
LEWIS AIRPORT* CLEAR     67  64  92 SW6       29.88S
NORTHERLY IS     N/A     73  65  75 S5          N/A
$$

WIZ051-052-058>065-066-070>072-021200-
SOUTHEAST WISCONSIN

CITY           SKY/WX    TMP DP  RH WIND       PRES   REMARKS
MILWAUKEE      CLOUDY    73  66  78 NW7       29.80F
KENOSHA*       MOCLDY    73  69  87 SW12      29.83S
RACINE*        CLOUDY    72  67  84 SW12      29.83F
WAUKESHA       PTCLDY    72  66  83 SW7       29.82F
$$

INZ001>003-010>013-019-020-021200-
NORTHWEST INDIANA

CITY           SKY/WX    TMP DP  RH WIND       PRES   REMARKS
GARY*          PTCLDY    70  66  88 SW7       29.88F
MICHIGAN CITY* NOT AVBL
RENSSELAER*    NOT AVBL
$$

LMZ740>746-021200-
SOUTHERN LAKE MICHIGAN

STATION/POSITION TIME  SKY/WX   TEMP WIND        PRES    VSBY
                                AIR  DIR/SP/G
                 (UTC)          (F)  (DEG/KT/KT) (MB)    (MI)
HARRISON CRIB    1000            74  250/ 19/ 24   N/A
BURNHAM HARBOR   1100            73  230/  4/  8   N/A
CALUMET HARBOR   1000            71  210/  5/  7   N/A
BURNS HARBOR     1000            72  210/ 10/ 13 1012.5S
MICHIGAN CITY    1000            71  180/ 10/ 11   N/A
$$

ABBREVIATIONS USED IN REMARKS
   TC - TEMPERATURE IN CELSIUS
  WCI - WIND CHILL INDEX
   HX - HEAT INDEX
  VSB - VISIBILITY
$$



USA.gov is the U.S. government's official web portal to all federal, state and local government web resources and services.